Location: Arthez
(43.0833°N, 0.2500°W)
Time: 00:45:52
(UTC+00:00)

USA 229 DEB - Pass Details

Date: 23 October 2021
Orbit: 944 x 1268 km, 63.4° (Epoch: 25 November)

Event Time Altitude Azimuth Distance (km) Brightness Sun altitude
Rises 18:07:25 0° 194° (SSW) 3,606 6.7 -12.0°
Reaches altitude 10° 18:10:00 10° 188° (S) 2,682 6.0 -12.4°
Maximum altitude 18:15:55 46° 117° (ESE) 1,300 3.8 -13.5°
Drops below altitude 10° 18:22:14 10° 46° (NE) 2,857 5.5 -14.7°
Enters shadow 18:22:19 10° 46° (NE) 2,887 5.5 -14.7°
